Tracking 27188 objects as of 1-Apr-2023
HD Live streaming from Space Station
objects crossing your sky now

STARLINK-3525

Track STARLINK-3525 now!
10-day predictions
STARLINK-3525 is classified as:


NORAD ID: 51733
Int'l Code: 2022-016V
Perigee: 545.9 km
Apogee: 547.9 km
Inclination: 53.2 °
Period: 95.4 minutes
Semi major axis: 6917 km
RCS: Unknown
Launch date: February 21, 2022
Source: United States (US)
Launch site: AIR FORCE EASTERN TEST RANGE (AFETR)
Your satellite tracking list
Your tracking list is empty




NASA's NSSDC Master Catalog

Two Line Element Set (TLE):
1 51733U 22016V   23091.18392658  .00000831  00000-0  70291-4 0  9992
2 51733  53.2169  98.2752 0001388  97.2839 262.8311 15.08837198 62560
Source of the keplerian elements: AFSPC